�N����,����,�~����,�C��,���x,�C��,����,���ϕ���,�ő�u�ԕ���,�ő厞����,���˗�,�I�_���x,�n�����x,�ő啗���N��,DTYPE
"16/04/30","00:10",0.0,6.4,91.2,1008.3,313.1,2.1,2.9,336.9,0.00,5.1,13.2,"00:04:32",1
"16/04/30","00:20",0.0,6.5,91.1,1008.8,319.3,2.5,3.6,320.7,0.00,5.2,13.1,"00:15:36",1
"16/04/30","00:30",0.0,6.7,90.5,1008.6,320.6,2.6,3.4,334.1,0.00,5.3,13.2,"00:21:12",1
"16/04/30","00:40",0.0,6.6,90.3,1009.0,300.4,1.6,2.4,314.7,0.00,5.2,13.0,"00:30:16",1
"16/04/30","00:50",0.0,6.5,90.7,1009.3,311.8,1.8,3.1,328.8,0.00,5.1,13.2,"00:44:08",1
"16/04/30","01:00",0.0,6.6,90.7,1009.0,323.8,1.8,3.2,328.4,0.00,5.2,12.9,"00:59:36",1
"16/04/30","01:10",0.0,6.6,90.1,1008.8,328.4,2.1,3.6,338.9,0.00,5.1,13.0,"01:08:02",1
"16/04/30","01:20",0.0,6.7,89.7,1008.8,335.3,3.0,4.4,341.5,0.00,5.2,13.1,"01:14:10",1
"16/04/30","01:30",0.0,6.7,89.4,1008.6,335.0,3.0,4.2,339.3,0.00,5.1,12.8,"01:28:10",1
"16/04/30","01:40",0.0,6.7,89.2,1008.3,330.2,3.1,4.3,330.7,0.00,5.1,12.9,"01:34:16",1
"16/04/30","01:50",0.0,6.4,89.5,1009.0,316.9,2.8,3.5,328.6,0.00,4.8,13.0,"01:42:16",1
"16/04/30","02:00",0.0,6.2,90.2,1009.0,303.1,2.2,3.2,326.4,0.00,4.8,12.8,"01:51:22",1
"16/04/30","02:10",0.0,6.1,91.2,1008.8,301.1,2.6,4.2,321.9,0.00,4.8,12.7,"02:07:52",1
"16/04/30","02:20",0.0,6.1,90.9,1009.0,303.6,2.3,3.2,324.6,0.00,4.8,12.9,"02:12:32",1
"16/04/30","02:30",0.0,5.9,91.7,1009.3,303.5,2.2,3.9,336.1,0.00,4.7,12.7,"02:27:20",1
"16/04/30","02:40",0.0,6.0,91.6,1009.3,316.7,2.6,3.9,324.4,0.00,4.8,12.8,"02:30:08",1
"16/04/30","02:50",0.0,5.6,92.5,1009.0,313.9,2.0,2.6,321.7,0.00,4.5,12.7,"02:47:52",1
"16/04/30","03:00",0.0,5.7,93.1,1008.8,317.4,2.1,2.7,314.5,0.00,4.7,12.7,"02:56:00",1
"16/04/30","03:10",0.0,5.7,93.2,1009.3,333.0,1.8,2.5,318.8,0.00,4.7,12.6,"03:00:16",1
"16/04/30","03:20",0.0,5.5,93.4,1009.0,337.0,1.7,2.4,336.1,0.00,4.6,12.5,"03:13:12",1
"16/04/30","03:30",0.0,5.3,93.5,1008.8,303.9,1.5,2.2,316.6,0.00,4.4,12.5,"03:24:00",1
"16/04/30","03:40",0.0,4.9,94.0,1009.0,290.9,1.1,1.6,295.3,0.00,4.1,12.4,"03:37:28",1
"16/04/30","03:50",0.0,4.9,94.9,1009.0,312.9,1.6,1.9,322.6,0.00,4.2,12.2,"03:44:16",1
"16/04/30","04:00",0.0,5.0,95.3,1009.0,326.2,1.5,2.6,313.9,0.00,4.4,12.5,"03:59:12",1
"16/04/30","04:10",0.0,4.7,95.1,1009.0,300.0,1.6,2.4,318.8,0.00,4.0,12.2,"04:05:04",1
"16/04/30","04:20",0.0,4.4,95.7,1009.3,292.4,0.8,1.2,285.0,0.00,3.8,12.2,"04:11:28",1
"16/04/30","04:30",0.0,4.5,96.4,1009.5,315.7,1.3,2.0,323.3,0.00,4.0,12.2,"04:26:56",1
"16/04/30","04:40",0.0,4.6,96.7,1009.3,318.5,2.0,2.9,319.5,0.00,4.2,12.1,"04:36:16",1
"16/04/30","04:50",0.0,4.7,96.5,1009.5,317.4,1.6,2.9,330.4,0.00,4.2,12.0,"04:40:32",1
"16/04/30","05:00",0.0,4.5,96.5,1009.3,285.8,0.7,1.2,285.9,0.00,4.0,12.0,"04:50:08",1
"16/04/30","05:10",0.0,4.4,96.7,1009.5,294.2,1.5,1.9,312.4,0.00,4.0,12.1,"05:06:44",1
"16/04/30","05:20",0.0,4.4,96.9,1009.7,302.4,1.6,2.4,316.4,0.00,4.0,11.9,"05:14:40",1
"16/04/30","05:30",0.0,4.4,97.1,1009.3,296.2,1.5,1.9,305.2,0.00,4.0,12.1,"05:25:12",1
"16/04/30","05:40",0.0,4.6,97.4,1009.5,294.1,1.5,1.8,311.9,0.00,4.3,11.9,"05:35:20",1
"16/04/30","05:50",0.0,4.8,97.5,1009.7,305.1,1.7,2.6,321.7,0.00,4.5,11.9,"05:49:52",1
"16/04/30","06:00",0.0,5.6,97.2,1009.5,307.2,1.6,2.1,319.6,0.01,5.2,11.8,"05:50:08",1
"16/04/30","06:10",0.0,6.3,96.3,1010.0,311.7,1.5,1.9,325.4,0.01,5.8,11.8,"06:08:32",1
"16/04/30","06:20",0.0,7.0,94.6,1010.4,313.4,1.6,2.1,318.4,0.02,6.2,11.9,"06:14:48",1
"16/04/30","06:30",0.0,7.5,91.2,1010.2,321.3,1.2,1.9,325.3,0.03,6.2,11.9,"06:21:12",1
"16/04/30","06:40",0.0,8.0,88.8,1010.7,327.9,0.8,1.6,319.4,0.05,6.3,11.9,"06:32:00",1
"16/04/30","06:50",0.0,8.8,85.3,1011.4,296.0,0.5,1.0,312.6,0.06,6.5,12.0,"06:42:16",1
"16/04/30","07:00",0.0,9.6,84.3,1011.2,331.4,0.6,1.4,336.5,0.09,7.1,12.0,"06:54:32",1
"16/04/30","07:10",0.0,9.7,85.2,1011.6,333.9,0.5,1.3,343.7,0.12,7.4,12.2,"07:07:44",1
"16/04/30","07:20",0.0,9.8,83.2,1012.1,220.5,0.5,1.0,122.0,0.16,7.1,12.2,"07:11:28",1
"16/04/30","07:30",0.0,10.3,83.1,1011.9,239.3,0.7,1.3,225.8,0.20,7.6,12.2,"07:26:08",1
"16/04/30","07:40",0.0,10.8,79.8,1012.3,236.6,0.7,1.4,178.4,0.22,7.5,12.2,"07:38:24",1
"16/04/30","07:50",0.0,11.1,78.2,1012.3,238.2,0.7,1.3,130.2,0.25,7.5,12.3,"07:42:40",1
"16/04/30","08:00",0.0,11.2,78.1,1012.1,140.8,0.8,2.1,49.5,0.28,7.6,12.5,"07:56:48",1
"16/04/30","08:10",0.0,11.7,74.7,1011.9,210.0,1.0,1.8,85.8,0.31,7.4,12.6,"08:04:16",1
"16/04/30","08:20",0.0,12.0,75.4,1011.9,235.1,0.7,1.7,223.8,0.33,7.8,12.6,"08:10:16",1
"16/04/30","08:30",0.0,12.6,73.9,1012.1,223.3,0.8,1.4,179.2,0.35,8.1,12.8,"08:20:24",1
"16/04/30","08:40",0.0,12.8,70.0,1011.9,95.6,0.7,2.1,113.2,0.38,7.5,13.0,"08:30:32",1
"16/04/30","08:50",0.0,13.4,68.2,1011.9,344.1,0.7,2.2,57.9,0.40,7.7,13.2,"08:47:12",1
"16/04/30","09:00",0.0,13.3,68.0,1011.6,27.4,1.1,2.2,143.0,0.42,7.6,13.3,"08:52:24",1
"16/04/30","09:10",0.0,13.9,66.6,1011.9,185.8,1.1,2.5,120.5,0.45,7.8,13.5,"09:09:52",1
"16/04/30","09:20",0.0,14.4,64.4,1011.6,60.8,0.7,2.2,129.4,0.47,7.8,13.6,"09:19:44",1
"16/04/30","09:30",0.0,14.3,62.4,1011.6,141.6,1.2,2.5,225.7,0.48,7.3,13.8,"09:24:08",1
"16/04/30","09:40",0.0,15.8,65.9,1011.2,274.0,0.7,1.8,148.0,0.47,9.5,13.9,"09:38:08",1
"16/04/30","09:50",0.0,15.8,61.5,1010.9,193.6,1.2,2.7,211.6,0.50,8.5,14.2,"09:44:16",1
"16/04/30","10:00",0.0,16.0,60.2,1010.7,205.9,1.3,2.8,216.0,0.54,8.3,14.3,"09:56:32",1
"16/04/30","10:10",0.0,16.1,58.4,1010.9,189.9,1.8,2.9,156.0,0.48,8.0,14.5,"10:04:00",1
"16/04/30","10:20",0.0,16.7,58.7,1010.7,193.4,1.1,2.2,190.6,0.51,8.6,14.8,"10:10:48",1
"16/04/30","10:30",0.0,16.6,60.1,1010.4,193.0,1.7,3.3,212.9,0.50,8.9,15.1,"10:28:56",1
"16/04/30","10:40",0.0,16.5,58.4,1010.2,158.1,1.5,2.6,146.7,0.49,8.4,15.0,"10:30:16",1
"16/04/30","10:50",0.0,17.1,59.0,1010.2,153.0,1.5,4.3,121.1,0.51,9.1,15.4,"10:43:12",1
"16/04/30","11:00",0.0,17.3,60.1,1010.0,208.1,1.7,4.3,198.4,0.47,9.5,15.3,"10:57:12",1
"16/04/30","11:10",0.0,17.6,54.4,1009.7,171.6,1.7,4.2,232.4,0.55,8.3,15.8,"11:03:36",1
"16/04/30","11:20",0.0,18.3,53.5,1009.3,158.4,1.7,4.2,194.6,0.60,8.7,15.8,"11:18:48",1
"16/04/30","11:30",0.0,18.5,48.9,1009.3,136.0,1.6,4.0,113.2,0.59,7.6,16.2,"11:26:40",1
"16/04/30","11:40",0.0,18.8,49.9,1009.0,131.9,2.1,4.1,147.3,0.61,8.2,16.2,"11:31:12",1
"16/04/30","11:50",0.0,19.3,50.9,1009.0,162.8,2.2,3.7,175.4,0.61,8.9,16.7,"11:44:24",1
"16/04/30","12:00",0.0,19.8,47.2,1009.0,146.7,1.7,5.0,207.4,0.62,8.3,17.1,"11:52:08",1
"16/04/30","12:10",0.0,20.1,43.4,1008.6,117.1,1.3,3.1,113.3,0.61,7.3,17.2,"12:06:24",1
"16/04/30","12:20",0.0,20.8,43.8,1008.8,117.9,1.2,2.9,340.0,0.62,8.1,17.4,"12:13:44",1
"16/04/30","12:30",0.0,20.8,43.0,1008.1,157.8,1.7,3.7,164.6,0.62,7.8,17.7,"12:21:44",1
"16/04/30","12:40",0.0,21.1,41.8,1008.3,80.6,1.5,5.5,119.1,0.61,7.7,17.9,"12:32:16",1
"16/04/30","12:50",0.0,21.6,43.8,1008.3,163.5,2.0,4.2,182.2,0.60,8.8,17.9,"12:43:20",1
"16/04/30","13:00",0.0,21.6,40.2,1007.8,137.6,2.0,4.2,147.9,0.60,7.5,18.2,"12:55:52",1
"16/04/30","13:10",0.0,22.1,41.7,1007.8,173.4,1.7,3.3,164.0,0.59,8.5,18.2,"13:04:40",1
"16/04/30","13:20",0.0,22.5,34.9,1007.8,190.1,2.5,3.7,233.3,0.58,6.3,18.4,"13:14:32",1
"16/04/30","13:30",0.0,23.0,34.9,1007.6,203.8,2.3,4.9,185.3,0.57,6.7,18.5,"13:23:04",1
"16/04/30","13:40",0.0,22.7,35.0,1007.1,306.1,2.3,5.9,359.7,0.56,6.5,18.7,"13:35:28",1
"16/04/30","13:50",0.0,22.0,35.0,1007.1,238.2,3.4,6.5,216.7,0.54,5.9,18.8,"13:48:16",1
"16/04/30","14:00",0.0,22.7,34.5,1007.1,292.4,2.3,6.0,217.1,0.53,6.3,18.8,"13:52:40",1
"16/04/30","14:10",0.0,22.7,34.6,1006.9,268.1,2.0,6.6,235.0,0.51,6.3,18.8,"14:08:32",1
"16/04/30","14:20",0.0,22.7,32.1,1006.7,246.5,1.8,4.3,228.7,0.49,5.3,18.8,"14:13:04",1
"16/04/30","14:30",0.0,23.3,34.1,1006.7,236.1,1.7,5.2,227.0,0.48,6.7,19.0,"14:23:20",1
"16/04/30","14:40",0.0,23.6,34.7,1006.2,318.9,2.1,4.5,270.6,0.46,7.2,19.1,"14:31:44",1
"16/04/30","14:50",0.0,22.8,32.7,1006.4,274.8,2.2,5.4,226.8,0.44,5.6,18.9,"14:44:48",1
"16/04/30","15:00",0.0,22.8,33.4,1006.4,319.2,2.5,4.4,335.4,0.41,5.9,19.2,"14:54:00",1
"16/04/30","15:10",0.0,23.2,34.4,1006.9,282.6,1.6,4.1,320.4,0.39,6.7,19.2,"15:00:24",1
"16/04/30","15:20",0.0,22.7,32.9,1006.4,300.9,1.8,3.7,316.7,0.36,5.6,19.4,"15:12:24",1
"16/04/30","15:30",0.0,22.6,33.7,1006.4,245.2,1.7,3.6,341.5,0.34,5.9,19.3,"15:22:00",1
"16/04/30","15:40",0.0,23.6,31.9,1006.7,292.4,1.5,4.4,21.8,0.32,6.0,19.4,"15:35:36",1
"16/04/30","15:50",0.0,23.7,31.2,1006.2,307.4,1.7,5.4,350.2,0.29,5.7,19.4,"15:43:28",1
"16/04/30","16:00",0.0,23.3,31.2,1006.0,256.7,1.3,3.4,233.6,0.26,5.4,19.3,"15:57:36",1
"16/04/30","16:10",0.0,22.9,31.4,1006.4,259.6,1.7,3.6,259.9,0.24,5.1,19.3,"16:06:40",1
"16/04/30","16:20",0.0,22.6,32.4,1006.2,259.7,1.8,4.0,236.1,0.22,5.3,19.3,"16:11:20",1
"16/04/30","16:30",0.0,22.3,31.6,1006.2,260.2,2.3,4.3,230.6,0.19,4.7,19.2,"16:24:16",1
"16/04/30","16:40",0.0,21.7,31.0,1006.7,234.2,3.1,6.6,220.3,0.16,3.9,19.3,"16:35:44",1
"16/04/30","16:50",0.0,21.5,31.6,1006.7,248.1,2.7,6.3,237.0,0.12,4.0,19.1,"16:42:08",1
"16/04/30","17:00",0.0,21.3,32.1,1007.1,244.9,2.6,5.2,250.5,0.08,4.0,19.1,"16:58:08",1
"16/04/30","17:10",0.0,21.3,32.9,1007.1,263.0,2.3,5.0,332.6,0.07,4.4,18.9,"17:05:52",1
"16/04/30","17:20",0.0,21.1,30.6,1006.7,246.8,2.6,5.1,239.5,0.04,3.2,18.6,"17:18:40",1
"16/04/30","17:30",0.0,20.9,30.4,1006.7,253.8,2.3,5.0,232.4,0.03,2.9,18.6,"17:25:28",1
"16/04/30","17:40",0.0,20.7,32.2,1006.9,276.3,1.7,3.6,233.1,0.02,3.6,18.5,"17:33:20",1
"16/04/30","17:50",0.0,20.5,33.3,1006.9,270.2,1.3,2.5,275.8,0.01,3.9,18.6,"17:42:56",1
"16/04/30","18:00",0.0,20.0,39.6,1006.9,244.6,1.3,2.4,236.1,0.00,5.9,18.7,"17:58:32",1
"16/04/30","18:10",0.0,19.3,42.9,1007.4,231.8,1.3,2.4,204.6,0.00,6.4,18.5,"18:07:28",1
"16/04/30","18:20",0.0,18.7,43.7,1007.4,277.6,1.2,2.5,235.8,0.00,6.2,18.1,"18:11:20",1
"16/04/30","18:30",0.0,18.2,46.8,1007.6,284.7,1.2,1.8,316.0,0.00,6.7,18.2,"18:26:00",1
"16/04/30","18:40",0.0,17.8,47.7,1007.6,269.4,1.1,2.0,314.7,0.00,6.6,17.9,"18:37:20",1
"16/04/30","18:50",0.0,17.7,48.1,1007.8,281.0,1.3,2.2,339.0,0.00,6.6,17.9,"18:48:40",1
"16/04/30","19:00",0.0,16.9,51.7,1008.1,325.0,1.6,2.2,321.8,0.00,6.9,17.8,"18:58:40",1
"16/04/30","19:10",0.0,16.0,55.3,1008.3,330.8,1.7,2.6,346.0,0.00,7.1,17.7,"19:06:56",1
"16/04/30","19:20",0.0,15.5,56.9,1008.1,318.5,1.5,2.2,339.5,0.00,7.0,17.7,"19:12:00",1
"16/04/30","19:30",0.0,15.1,59.4,1008.3,338.8,1.5,2.1,357.8,0.00,7.3,17.6,"19:23:20",1
"16/04/30","19:40",0.0,14.5,61.8,1008.3,328.5,2.0,3.2,331.8,0.00,7.3,17.4,"19:36:08",1
"16/04/30","19:50",0.0,14.2,61.8,1008.8,321.6,1.5,2.5,335.3,0.00,7.0,17.3,"19:40:24",1
"16/04/30","20:00",0.0,14.2,61.8,1009.0,328.8,1.6,2.2,342.2,0.00,7.0,17.3,"19:51:04",1
"16/04/30","20:10",0.0,13.9,63.3,1008.8,318.6,1.5,2.2,335.2,0.00,7.1,16.8,"20:09:52",1
"16/04/30","20:20",0.0,13.7,63.3,1008.8,329.5,1.6,2.6,323.1,0.00,6.9,17.0,"20:19:52",1
"16/04/30","20:30",0.0,13.7,65.7,1008.8,337.3,1.7,2.6,338.0,0.00,7.4,16.8,"20:26:56",1
"16/04/30","20:40",0.0,13.0,68.9,1009.3,294.7,0.2,0.8,333.7,0.00,7.5,16.8,"20:31:20",1
"16/04/30","20:50",0.0,12.6,68.9,1009.3,310.5,0.6,1.2,312.6,0.00,7.1,16.7,"20:43:52",1
"16/04/30","21:00",0.0,12.3,70.0,1009.3,276.7,0.7,1.3,241.9,0.00,7.0,16.7,"20:54:08",1
"16/04/30","21:10",0.0,12.2,69.7,1009.7,305.1,0.8,1.6,314.2,0.00,6.9,16.6,"21:01:52",1
"16/04/30","21:20",0.0,12.3,71.4,1009.7,322.7,1.5,2.5,311.2,0.00,7.3,16.3,"21:15:54",1
"16/04/30","21:30",0.0,12.2,72.6,1009.7,306.2,1.3,1.8,328.5,0.00,7.5,16.5,"21:22:02",1
"16/04/30","21:40",0.0,12.1,70.6,1009.5,302.4,1.5,2.0,320.6,0.00,7.0,16.3,"21:30:56",1
"16/04/30","21:50",0.0,12.2,71.3,1009.5,313.3,1.3,1.9,320.0,0.00,7.2,16.2,"21:42:00",1
"16/04/30","22:00",0.0,11.9,72.7,1009.5,316.4,1.3,1.7,347.7,0.00,7.2,16.0,"21:58:56",1
"16/04/30","22:10",0.0,11.7,74.1,1009.3,298.1,1.1,2.0,332.1,0.00,7.3,16.0,"22:09:58",1
"16/04/30","22:20",0.0,11.3,76.9,1009.5,313.4,1.2,2.0,316.1,0.00,7.4,16.0,"22:10:46",1
"16/04/30","22:30",0.0,11.1,79.0,1009.3,300.0,1.2,1.8,330.5,0.00,7.6,15.9,"22:20:52",1
"16/04/30","22:40",0.0,10.9,79.5,1009.5,312.6,1.2,1.8,330.6,0.00,7.5,15.7,"22:32:02",1
"16/04/30","22:50",0.0,10.9,79.4,1009.5,287.1,0.8,1.3,286.7,0.00,7.5,15.7,"22:45:40",1
"16/04/30","23:00",0.0,10.7,80.0,1009.0,277.2,1.0,1.3,269.6,0.00,7.4,15.8,"22:58:32",1
"16/04/30","23:10",0.0,10.8,80.4,1009.0,301.3,1.5,2.0,324.1,0.00,7.6,15.5,"23:04:50",1
"16/04/30","23:20",0.0,10.8,80.2,1009.3,293.9,0.6,1.4,320.3,0.00,7.6,15.6,"23:13:58",1
"16/04/30","23:30",0.0,10.8,81.6,1009.3,308.9,1.2,1.7,298.2,0.00,7.8,15.3,"23:22:38",1
"16/04/30","23:40",0.0,10.6,82.6,1009.3,315.3,0.8,1.2,328.0,0.00,7.8,15.4,"23:30:12",1
"16/04/30","23:50",0.0,10.5,83.6,1009.3,304.4,1.3,1.8,318.4,0.00,7.9,15.4,"23:49:42",1
"16/04/30","24:00",0.0,10.2,84.9,1009.3,306.7,1.2,1.7,311.9,0.00,7.8,15.0,"23:52:10",1
